Simultaneous Nadir Overpasses (SNOs) Predictions

Prediction of SNOs between FY3D and TERRA Satellite Orbit:

Table of predicted SNOs for the next 14.0 days since TLE Epoch: 2/26/2022
Index Date (FY3D) Time (FY3D) Lat,Lon (FY3D) SZA (FY3D ) Date (TERRA) Time (TERRA) Lat,Lon (TERRA) SZA (TERRA ) Distance(km) Time Diff (sec)
1 02/28/2022 08:02:40 -71.00,-120.83 101.15 02/28/2022 08:03:12 -71.01,-120.78 101.14 2.46 32
2 02/28/2022 08:53:25 70.87, 46.68 78.71 02/28/2022 08:52:40 70.86, 46.63 78.70 2.64 45
3 03/02/2022 23:29:50 70.98,-172.57 77.83 03/02/2022 23:30:10 71.00,-172.55 77.84 2.33 20
4 03/03/2022 00:20:32 -70.87, -5.08 102.30 03/03/2022 00:19:40 -70.89, -5.09 102.29 1.45 52
5 03/05/2022 14:06:25 71.61, -32.76 77.47 03/05/2022 14:07:34 71.46, -31.22 77.29 56.79 69
6 03/05/2022 14:56:57 -70.99, 135.66 103.19 03/05/2022 14:57:11 -70.97, 135.63 103.21 2.03 14
7 03/05/2022 15:47:42 70.86, -56.83 76.67 03/05/2022 15:46:38 70.86, -56.89 76.68 2.20 64
8 03/08/2022 05:33:27 -71.36, -84.06 103.82 03/08/2022 05:34:38 -71.27, -83.31 103.94 29.04 71
9 03/08/2022 06:24:07 70.98, 83.90 75.77 03/08/2022 06:24:08 70.99, 83.91 75.79 1.63 1
10 03/08/2022 07:14:49 -70.87,-108.60 104.36 03/08/2022 07:13:38 -70.88,-108.62 104.34 1.66 71
11 03/10/2022 21:00:31 71.10,-135.38 74.88 03/10/2022 21:01:37 71.12,-135.30 74.88 3.24 66
12 03/10/2022 21:51:13 -70.99, 32.12 105.26 03/10/2022 21:51:07 -71.01, 32.16 105.24 2.31 6
13 03/10/2022 22:41:51 70.50,-159.76 74.23 03/10/2022 22:40:40 70.57,-160.86 74.32 41.33 71



Historial Predications of SNOs between FY3D and TERRA
